Terug naar catalogus

STARLINK-4755

ActiefCommunicatieVLEO
NORAD 53851·PAYLOAD·🇺🇸 United States

Gelanceerd Sep 19, 2022 vanaf Cape Canaveral Space Force Station

Loading…

Volgende Passages (komende 24 uur)

TLE

VersSource: CelesTrak SupGP

Epoch: Sep 14, 2026, 20:52 UTC

1 53851C 22114AK  26257.86993056 -.00032441  00000+0 -20343-2 0  2576
2 53851  53.1585 164.0018 0001560  92.5142 301.7380 15.08853773    16

Volg STARLINK-4755 in realtime met AllMySat

Download on the App Store